AK6MW Weather Reports


time (UTC)temp
C
wind
direction
speed
KPH
gust
KPH
rain 1hr
cm
rain 24hr
cm
rain mn
cm
humidity
%
barometer
mb
20260507004908 16 0.0 0.0 0.00 0.00 0.00 63 1020.4
20260507003850 16 0.0 0.0 0.00 0.00 0.00 62 1020.4
20260507002849 16 0.0 0.0 0.00 0.00 0.00 62 1020.3
20260507001849 17 0.0 0.0 0.00 0.00 0.00 61 1020.2
20260507000849 17 0.0 0.0 0.00 0.00 0.00 61 1020.0
20260506235848 17 0.0 0.0 0.00 0.00 0.00 61 1019.8
20260506235032 17 0.0 0.0 0.00 0.00 0.00 63 1019.9
20260506233910 17 0.0 0.0 0.00 0.00 0.00 61 1020.0
20260506232850 17 0.0 0.0 0.00 0.00 0.00 63 1019.9
20260506231850 17 0.0 0.0 0.00 0.00 0.00 63 1020.0
20260506230909 17 0.0 0.0 0.00 0.00 0.00 64 1020.0
20260506225930 17 0.0 0.0 0.00 0.00 0.00 64 1020.1
20260506224850 17 0.0 0.0 0.00 0.00 0.00 63 1020.0
20260506223848 16 0.0 0.0 0.00 0.00 0.00 67 1020.2
20260506222851 17 0.0 0.0 0.00 0.00 0.00 68 1020.2
20260506221849 16 0.0 0.0 0.00 0.00 0.00 69 1020.3
20260506220850 16 0.0 0.0 0.00 0.00 0.00 70 1020.6
20260506215849 16 0.0 0.0 0.00 0.00 0.00 71 1020.6
20260506214930 16 0.0 0.0 0.00 0.00 0.00 70 1020.6
20260506213849 16 0.0 0.0 0.00 0.00 0.00 71 1020.4
20260506212849 16 0.0 0.0 0.00 0.00 0.00 72 1020.4
20260506211909 16 0.0 0.0 0.00 0.00 0.00 69 1020.6
20260506210849 16 0.0 0.0 0.00 0.00 0.00 72 1020.3
20260506205910 16 0.0 0.0 0.00 0.00 0.00 70 1020.2
20260506204850 16 0.0 0.0 0.00 0.00 0.00 73 1020.2
20260506203912 15 0.0 0.0 0.00 0.00 0.00 74 1020.3
20260506202909 15 0.0 0.0 0.00 0.00 0.00 74 1020.2
20260506201849 15 0.0 0.0 0.00 0.00 0.00 74 1020.2
20260506200849 15 0.0 0.0 0.00 0.00 0.00 74 1020.6
20260506195848 15 0.0 0.0 0.00 0.00 0.00 74 1020.3
20260506194850 14 0.0 0.0 0.00 0.00 0.00 79 1020.7
20260506193849 13 0.0 0.0 0.00 0.00 0.00 78 1020.6
20260506192851 14 0.0 0.0 0.00 0.00 0.00 78 1020.4
20260506191911 13 0.0 0.0 0.00 0.00 0.00 78 1020.7
20260506190849 14 0.0 0.0 0.00 0.00 0.00 78 1020.4
20260506185849 13 0.0 0.0 0.00 0.00 0.00 79 1020.8
20260506184850 14 0.0 0.0 0.00 0.00 0.00 77 1021.0
20260506183851 13 0.0 0.0 0.00 0.00 0.00 77 1020.7
20260506182849 13 0.0 0.0 0.00 0.00 0.00 79 1020.7
20260506181848 13 0.0 0.0 0.00 0.00 0.00 78 1020.9
20260506180849 13 0.0 0.0 0.00 0.00 0.00 78 1021.1
20260506175849 13 0.0 0.0 0.00 0.00 0.00 81 1021.1
20260506174852 12 0.0 0.0 0.00 0.00 0.00 81 1021.1
20260506173849 12 0.0 0.0 0.00 0.00 0.00 79 1020.9
20260506172849 12 0.0 0.0 0.00 0.00 0.00 80 1020.9
20260506171850 12 0.0 0.0 0.00 0.00 0.00 79 1020.9
20260506170910 12 0.0 0.0 0.00 0.00 0.00 78 1020.8
20260506165849 12 0.0 0.0 0.00 0.00 0.00 75 1020.8
20260506164849 12 0.0 0.0 0.00 0.00 0.00 78 1020.8
20260506163909 11 0.0 0.0 0.00 0.00 0.00 76 1020.8
20260506162850 12 0.0 0.0 0.00 0.00 0.00 74 1021.1
20260506161931 12 0.0 0.0 0.00 0.00 0.00 78 1020.9
20260506160910 11 0.0 0.0 0.00 0.00 0.00 82 1020.9
20260506155849 11 0.0 0.0 0.00 0.00 0.00 84 1020.9
20260506154849 10 0.0 0.0 0.00 0.00 0.00 82 1020.6
20260506153931 9 0.0 0.0 0.00 0.00 0.00 85 1020.9
20260506152850 10 0.0 0.0 0.00 0.00 0.00 81 1020.7
20260506151909 10 0.0 0.0 0.00 0.00 0.00 81 1020.7
20260506150849 10 0.0 0.0 0.00 0.00 0.00 88 1020.7
20260506145850 8 0.0 0.0 0.00 0.00 0.00 95 1020.7
20260506144849 7 0.0 0.0 0.00 0.00 0.00 99 1020.7
20260506143910 7 0.0 0.0 0.00 0.00 0.00 99 1020.4
20260506142849 6 0.0 0.0 0.00 0.00 0.00 99 1020.4
20260506141849 6 0.0 0.0 0.00 0.00 0.00 99 1020.2
20260506140848 5 0.0 0.0 0.00 0.00 0.00 99 1020.2
20260506135850 5 0.0 0.0 0.00 0.00 0.00 99 1020.4
20260506134848 5 0.0 0.0 0.00 0.00 0.00 98 1020.0
20260506133910 5 0.0 0.0 0.00 0.00 0.00 99 1020.1
20260506132849 5 0.0 0.0 0.00 0.00 0.00 99 1020.1
20260506131850 5 0.0 0.0 0.00 0.00 0.00 98 1019.8
20260506130849 5 0.0 0.0 0.00 0.00 0.00 98 1019.8
20260506125848 6 0.0 0.0 0.00 0.00 0.00 99 1019.8
20260506124850 6 0.0 0.0 0.00 0.00 0.00 99 1019.7
20260506123849 6 0.0 0.0 0.00 0.00 0.00 99 1019.6
20260506122849 6 0.0 0.0 0.00 0.00 0.00 99 1019.6
20260506121849 6 0.0 0.0 0.00 0.00 0.00 99 1019.6
20260506120912 6 0.0 0.0 0.00 0.00 0.00 99 1019.3
20260506115850 6 0.0 0.0 0.00 0.00 0.00 99 1019.9
20260506114848 6 0.0 0.0 0.00 0.00 0.00 99 1019.7
20260506113910 6 0.0 0.0 0.00 0.00 0.00 99 1019.6
20260506112850 6 0.0 0.0 0.00 0.00 0.00 99 1019.4
20260506111849 6 0.0 0.0 0.00 0.00 0.00 99 1019.6
20260506110852 6 0.0 0.0 0.00 0.00 0.00 99 1019.3
20260506105848 6 0.0 0.0 0.00 0.00 0.00 99 1019.3
20260506104848 6 0.0 0.0 0.00 0.00 0.00 99 1019.2
20260506103909 6 0.0 0.0 0.00 0.00 0.00 99 1019.1
20260506102849 6 0.0 0.0 0.00 0.00 0.00 99 1019.2
20260506101850 6 0.0 0.0 0.00 0.00 0.00 99 1019.1
20260506100849 6 0.0 0.0 0.00 0.00 0.00 99 1019.2
20260506095850 6 0.0 0.0 0.00 0.00 0.00 99 1019.2
20260506094848 6 0.0 0.0 0.00 0.00 0.00 99 1019.0
20260506093850 6 0.0 0.0 0.00 0.00 0.00 99 1018.8
20260506092910 6 0.0 0.0 0.00 0.00 0.00 99 1019.1
20260506091851 6 0.0 0.0 0.00 0.00 0.00 99 1019.0
20260506090849 6 0.0 0.0 0.00 0.00 0.00 99 1019.3
20260506085850 5 0.0 0.0 0.00 0.00 0.00 99 1019.1
20260506084849 5 0.0 0.0 0.00 0.00 0.00 99 1019.0
20260506083849 5 0.0 0.0 0.00 0.00 0.00 99 1019.1
20260506082850 5 0.0 0.0 0.00 0.00 0.00 99 1018.9
20260506081849 5 0.0 0.0 0.00 0.00 0.00 99 1019.2
20260506080849 5 0.0 0.0 0.00 0.00 0.00 99 1018.8
20260506072852 5 0.0 0.0 0.00 0.00 0.00 99 1019.1
20260506071849 5 0.0 0.0 0.00 0.00 0.00 99 1018.8
20260506070850 5 0.0 0.0 0.00 0.00 0.00 99 1018.6
20260506061849 5 0.0 0.0 0.00 0.00 0.00 99 1018.2
20260506060849 5 0.0 0.0 0.00 0.00 0.00 99 1018.2
20260506050849 5 0.0 0.0 0.00 0.00 0.00 99 1017.8
20260506044850 5 0.0 0.0 0.00 0.00 0.00 99 1017.8
20260506043852 5 0.0 0.0 0.00 0.00 0.00 99 1017.6
20260506042849 5 0.0 0.0 0.00 0.00 0.00 99 1017.7
20260506041848 5 0.0 0.0 0.00 0.00 0.00 99 1017.3
20260506040850 6 0.0 0.0 0.00 0.00 0.00 99 1017.3
20260506035848 6 0.0 0.0 0.00 0.00 0.00 99 1017.4
20260506034851 6 0.0 0.0 0.00 0.00 0.00 99 1017.0
20260506033848 6 0.0 0.0 0.00 0.00 0.00 99 1016.8
20260506032934 7 0.0 0.0 0.00 0.00 0.00 99 1016.7
20260506031849 6 0.0 0.0 0.00 0.00 0.00 99 1016.7
20260506030849 7 0.0 0.0 0.00 0.00 0.00 99 1016.6
20260506025848 7 0.0 0.0 0.00 0.00 0.00 99 1016.4
20260506024848 7 0.0 0.0 0.00 0.00 0.00 99 1016.0
20260506023848 7 0.0 0.0 0.00 0.00 0.00 99 1016.2
20260506022849 7 0.0 0.0 0.00 0.00 0.00 99 1016.0
20260506021914 6 0.0 0.0 0.00 0.00 0.00 99 1015.8
20260506020911 7 0.0 0.0 0.00 0.00 0.00 99 1015.8
20260506015952 7 0.0 0.0 0.00 0.00 0.00 99 1015.8
20260506014911 7 0.0 0.0 0.00 0.00 0.00 99 1015.3
20260506013910 7 0.0 0.0 0.00 0.00 0.00 99 1015.6
20260506012852 6 0.0 0.0 0.00 0.00 0.00 99 1015.6
20260506011850 7 0.0 0.0 0.00 0.00 0.00 99 1015.6
20260506010849 7 0.0 0.0 0.00 0.00 0.00 99 1015.6
20260506005851 7 0.0 0.0 0.00 0.00 0.00 99 1015.7